Terminal Aerodrome Forecast
Issued by NWS Wilmington, OH

Current Version | Previous Version | Text Only | Print | Product List | Glossary Off
Versions: 1 2 3 4 5 6 7 8 9 10 11 12 13 14 15 16 17 18 19 20 21 22 23 24 25 26 27 28 29 30 31 32 33

000
FTUS41 KILN 252100 AAB
TAFCVG
TAF AMD
KCVG 252126Z 2521/2624 21013G22KT P6SM SCT035 OVC090
     FM252300 19008KT P6SM BKN060
     FM261300 20011KT P6SM SCT035
     FM261800 21012KT P6SM VCTS SCT035CB BKN110=

USA.gov is the U.S. government's official web portal to all federal, state and local government web resources and services.